Temperature
21 21 21 21 24 24 23 23 24 23 23 22 22 23 23 22 22 21 18 17 17 17 17 17 17 17 17 17 17 17 18 18 18 18 18 18 18 18 18 18 18 18 18 18 18 18 18 18 18
21 21 21 23 25 24 23 23 23 23 22 22 22 22 22 21 20 19 17 17 17 17 17 17 17 17 17 17 17 17 17 17 18 18 18 17 18 18 18 18 18 18 18 18 18 18 18 18 18
21 21 22 25 24 24 23 23 23 23 22 22 22 22 21 20 19 18 17 17 17 17 17 17 17 17 17 17 17 17 17 17 17 17 17 17 17 17 17 18 17 17 17 18 18 18 18 17 17
21 22 23 25 24 24 24 24 23 23 22 22 22 22 20 19 18 18 17 17 17 17 17 17 17 17 17 17 17 17 17 17 17 17 17 17 17 17 17 17 17 17 17 17 17 17 17 17 17
21 23 24 24 23 24 24 23 23 24 23 22 22 22 20 18 18 18 17 17 17 17 17 16 17 17 17 17 17 17 17 17 17 17 17 17 17 17 17 17 17 17 17 17 17 17 17 17 17
23 24 24 24 23 23 24 23 23 23 23 22 22 22 20 18 18 18 17 17 17 17 17 17 17 17 17 17 17 17 17 17 17 17 17 17 17 17 17 17 17 17 17 17 17 17 17 17 17
24 24 24 24 23 23 24 23 23 24 23 22 22 22 20 18 18 18 17 17 17 17 17 17 17 17 17 17 17 17 17 17 17 17 17 17 17 17 17 17 17 17 17 17 17 17 17 17 17
23 25 24 24 23 23 23 23 23 23 22 21 21 22 20 19 18 18 17 17 17 17 17 17 17 17 17 17 17 17 17 17 17 17 17 17 16 16 16 16 16 17 17 17 17 17 16 16 16
23 25 24 24 23 23 23 23 22 22 22 21 21 21 20 19 18 18 18 18 17 17 17 17 17 17 17 16 17 17 17 17 16 16 16 16 16 16 16 16 16 16 16 16 16 16 16 16 16
24 24 24 24 24 24 23 23 23 22 22 22 21 20 19 18 18 18 18 18 18 18 18 17 17 17 17 16 16 16 16 16 16 16 16 16 16 16 16 16 16 16 16 16 16 16 16 16 16
24 24 24 24 23 23 23 23 23 23 23 22 22 20 19 19 19 19 19 19 18 18 18 17 17 17 17 17 16 16 16 16 16 16 16 16 16 16 16 16 16 16 16 16 16 15 15 15 16
24 24 23 23 22 23 23 22 22 22 22 21 21 20 19 19 19 19 19 19 18 18 18 17 17 17 17 17 17 16 16 16 16 16 16 16 16 16 16 16 16 15 15 16 15 15 15 15 15
24 24 23 22 22 22 22 22 22 22 21 21 20 20 20 20 19 19 19 19 18 18 17 17 17 17 17 17 16 16 16 16 16 16 16 16 16 16 16 16 15 15 15 15 15 15 15 15 15
24 23 23 23 22 22 22 22 22 21 20 20 20 20 20 20 19 19 19 18 18 18 18 17 17 17 17 17 17 17 16 16 16 16 16 16 16 16 15 15 15 15 15 15 15 15 15 15 15
23 24 24 23 23 22 23 22 22 21 20 20 20 20 20 19 19 19 19 19 19 18 18 18 17 17 17 17 17 16 16 16 16 16 16 16 16 16 15 15 15 15 15 15 15 15 15 15 15
24 24 23 23 23 22 23 23 23 21 21 21 20 20 19 19 19 19 19 18 18 18 18 18 17 17 17 17 17 16 16 16 16 16 16 16 15 15 15 15 15 15 15 15 15 15 15 15 14
24 23 23 23 23 23 23 23 23 21 21 21 21 20 20 19 19 19 19 18 18 18 18 18 17 17 17 17 16 16 16 16 16 16 16 16 15 15 15 15 15 15 15 15 15 14 14 14 14
23 23 23 23 23 23 23 23 23 21 21 21 21 20 20 20 19 19 19 18 18 18 18 18 17 17 17 16 16 16 16 16 16 16 16 16 15 15 15 15 15 15 15 15 14 14 14 14 14
23 23 23 23 23 23 23 23 23 22 21 21 21 21 20 20 19 19 18 18 18 18 17 18 17 17 17 16 16 16 16 16 16 16 16 15 15 15 15 15 15 15 15 15 14 14 14 14 14
23 23 23 23 23 23 23 23 23 22 21 21 21 21 20 20 19 19 18 18 18 18 17 17 17 17 17 17 16 16 16 16 16 16 15 15 15 15 15 15 15 15 15 14 14 14 14 14 14
23 23 23 22 22 22 22 23 23 23 21 21 20 20 20 19 19 19 18 18 18 18 18 18 17 17 17 17 16 16 16 16 16 16 15 15 15 15 15 15 15 14 14 14 14 14 14 14 13
22 23 23 22 22 23 22 22 23 23 22 22 21 20 20 19 19 19 18 18 17 18 18 17 17 17 17 17 16 16 16 16 16 15 15 15 15 15 15 14 14 14 14 14 14 14 14 14 13
22 22 22 22 22 22 23 22 24 23 22 22 22 20 20 19 19 18 18 18 17 17 17 17 17 17 17 17 17 16 16 16 16 15 15 15 15 15 14 14 14 14 14 14 14 14 14 13 13
22 22 22 22 22 22 23 23 23 23 23 22 22 21 20 19 18 18 18 17 17 17 17 17 17 17 17 17 16 16 16 16 15 15 15 15 15 14 14 14 14 14 14 14 14 14 13 13 13
22 22 21 21 21 22 23 22 23 23 22 22 21 20 19 18 18 18 17 17 17 17 17 17 17 17 17 16 16 16 16 16 16 15 15 15 15 14 14 14 14 14 14 14 13 13 13 13 13
22 22 21 21 21 22 22 22 23 22 21 21 20 20 19 18 17 17 17 17 16 17 17 17 17 16 16 16 16 16 16 16 15 15 15 15 15 14 14 14 14 14 14 14 13 13 13 13 13
22 22 22 22 22 21 22 23 22 22 21 21 20 19 19 18 17 16 16 16 16 16 16 16 16 16 16 16 16 16 16 15 15 15 15 15 15 14 14 14 14 14 14 13 13 13 13 13 13
22 22 22 21 20 21 21 22 22 22 21 21 20 19 18 17 17 16 16 16 16 16 16 16 16 16 16 16 16 16 15 15 15 15 15 15 14 14 14 14 14 14 13 13 13 13 13 13 13
21 21 21 21 21 21 21 22 22 22 21 21 20 19 18 17 16 16 15 15 16 16 16 16 16 15 15 15 15 15 15 15 15 15 14 14 14 14 14 14 14 13 13 13 13 13 13 13 12
21 21 21 20 21 21 21 21 21 21 20 20 19 18 17 16 16 15 15 15 15 15 15 15 15 15 15 15 15 15 15 15 14 14 14 14 14 14 14 14 13 13 13 13 13 13 13 13 12
Wind_Speed
3 2 2 2 2 3 5 4 4 4 4 5 5 4 5 5 4 5 5 4 4 5 6 6 6 7 8 9 9 9 8 8 9 9 9 9 9 10 10 10 10 10 10 10 10 10 10 10 10
1 1 2 1 1 4 5 5 5 5 5 4 4 5 5 6 6 6 5 4 4 5 5 7 7 7 8 9 9 9 9 9 9 9 10 9 9 10 10 10 10 10 10 10 11 11 11 11 10
2 1 1 1 2 4 6 5 6 6 4 2 3 4 4 5 5 5 5 5 5 6 6 8 6 7 8 9 9 10 10 10 10 10 10 10 10 10 9 10 10 10 10 10 11 11 11 11 11
2 2 1 2 6 6 5 6 5 6 4 3 3 5 5 5 4 6 7 6 6 6 7 9 7 8 8 9 9 10 10 10 10 10 10 10 10 10 9 9 10 10 10 11 11 11 11 10 11
1 1 3 5 6 5 4 5 5 4 4 4 4 7 7 5 6 8 7 6 6 6 7 9 8 8 8 9 9 10 10 10 11 10 10 10 11 11 10 10 11 11 11 11 11 11 11 11 10
1 1 4 6 6 5 5 5 5 5 5 5 5 7 6 6 7 8 7 6 5 6 6 8 8 8 8 9 9 10 10 10 11 11 11 11 11 12 12 11 11 11 11 11 11 11 11 11 10
1 2 4 6 6 5 5 4 4 4 5 4 4 6 6 7 7 7 7 6 6 6 6 6 7 8 8 9 9 9 9 10 11 11 11 11 12 12 12 12 11 11 11 12 12 12 11 11 11
0 2 5 5 5 5 5 4 2 3 5 4 3 4 6 8 8 7 7 6 6 6 6 6 6 6 7 9 10 9 10 10 10 11 10 10 10 11 12 12 13 12 12 12 12 12 12 12 11
2 2 4 4 4 5 6 5 3 3 5 4 3 4 7 11 10 8 7 6 6 5 5 5 6 6 7 8 9 8 9 8 8 9 8 5 8 9 10 14 13 13 13 12 12 11 11 10 10
2 2 3 3 3 5 6 4 4 5 5 5 5 6 9 11 10 8 7 7 6 6 5 5 5 5 6 6 6 6 6 7 6 7 7 7 8 8 9 12 12 12 11 11 11 9 8 6 7
1 2 3 3 4 4 5 3 3 4 3 3 6 9 10 10 9 8 7 6 6 6 5 4 5 5 5 5 5 5 5 5 6 7 7 6 7 6 7 7 7 8 7 8 7 6 7 7 7
2 2 2 3 4 4 4 3 2 2 1 2 4 8 10 10 9 7 6 6 6 5 5 4 4 5 5 5 4 4 4 4 4 5 6 6 5 5 5 5 6 6 6 6 6 6 8 8 8
3 2 2 3 4 4 4 3 2 2 2 3 5 8 9 9 8 6 6 6 6 5 5 5 4 4 4 5 3 4 4 4 5 4 5 5 4 4 5 5 5 6 6 5 5 6 7 7 8
2 3 3 3 4 4 4 3 3 2 3 5 7 7 8 8 8 7 6 7 7 6 6 5 5 4 4 4 4 4 4 4 4 4 4 5 4 4 4 4 5 5 5 5 5 6 6 6 6
3 3 3 3 3 3 4 4 4 3 5 6 7 7 7 7 7 7 7 6 6 7 7 6 5 5 5 4 4 3 3 4 3 3 4 4 4 4 3 3 4 4 4 5 5 6 5 5 5
3 4 3 2 2 3 5 3 2 3 6 6 6 7 7 7 7 7 6 6 7 7 7 7 5 5 5 5 4 3 3 3 3 3 2 3 3 3 3 3 3 3 3 3 3 4 4 4 5
5 4 3 2 2 3 5 3 2 3 6 6 6 6 7 7 8 7 7 7 7 7 8 8 7 6 6 5 4 3 3 3 2 2 2 2 2 2 3 2 2 3 2 3 2 3 3 4 4
5 4 4 3 2 4 5 5 3 4 6 5 5 6 7 7 8 8 8 7 7 7 8 8 8 7 6 5 4 4 3 3 2 2 2 2 2 2 2 2 2 2 2 2 2 3 3 3 2
4 5 5 4 2 4 6 6 4 4 5 6 6 6 7 7 7 7 7 7 7 8 8 8 8 8 6 5 4 4 4 3 2 2 2 2 2 2 2 1 2 2 2 2 2 2 3 2 2
6 7 5 3 2 5 7 8 5 5 6 6 5 6 6 6 6 7 7 8 9 9 9 9 9 8 7 5 5 4 4 3 3 2 2 2 2 2 2 2 2 2 2 2 2 2 1 1 1
7 8 6 5 4 6 6 8 7 6 6 5 5 5 5 6 7 8 8 8 9 9 9 8 9 9 8 7 5 4 4 3 3 3 2 2 2 2 2 2 2 2 2 2 2 2 1 1 0
7 5 6 7 7 5 5 7 5 6 6 6 5 5 5 5 6 7 8 9 9 9 9 9 8 8 8 8 7 7 5 4 4 3 3 3 3 2 2 2 2 2 2 2 2 2 1 1 1
5 3 6 7 8 8 8 7 4 5 6 5 5 5 5 5 6 6 7 8 8 8 8 8 8 8 8 8 8 7 6 4 4 4 4 4 3 3 3 3 2 3 3 3 3 2 2 2 1
4 3 4 5 6 9 7 7 5 3 4 3 3 4 5 5 5 5 5 6 7 7 7 7 8 8 8 8 8 8 7 6 5 5 4 4 3 3 4 3 3 3 3 3 3 3 3 2 2
6 6 4 5 6 6 3 6 4 0 0 2 2 2 4 4 4 4 5 6 7 7 8 8 8 8 8 8 8 8 8 7 6 6 5 4 4 4 4 4 4 4 4 4 4 4 3 3 2
8 9 6 5 5 4 4 6 2 1 0 1 2 2 3 3 3 4 4 5 6 7 8 8 8 8 8 8 8 7 7 5 5 5 5 5 4 4 4 4 4 4 4 4 4 4 4 3 3
7 8 7 8 8 7 6 5 3 3 2 1 1 1 2 3 3 4 4 5 5 6 7 8 8 8 8 8 8 7 6 6 5 5 5 4 4 4 4 4 4 4 4 4 4 4 4 3 3
5 5 5 7 7 8 7 8 5 4 2 1 1 1 2 2 3 3 3 4 5 5 5 7 8 8 8 8 7 6 6 6 5 5 5 5 5 4 5 5 5 5 5 5 5 4 4 4 3
5 7 7 7 7 7 7 4 0 1 1 1 0 1 2 2 3 3 3 4 4 5 5 5 6 7 7 8 7 7 6 6 5 5 5 5 4 5 5 5 5 5 5 5 5 5 5 5 4
7 7 9 8 9 9 9 5 2 1 1 1 1 1 1 2 2 3 3 4 4 5 5 4 5 6 6 6 7 6 6 6 6 5 5 4 4 4 5 5 6 5 5 5 6 6 5 5 5
Wind_Direction
177 186 228 236 196 107 86 83 90 96 79 67 66 65 67 51 36 73 93 101 93 93 91 94 75 74 71 70 69 68 69 73 72 74 79 80 75 71 73 76 79 82 83 82 80 82 86 83 79
188 213 236 233 175 122 98 100 95 78 95 100 80 72 73 70 63 92 110 107 103 93 86 77 76 80 77 74 72 70 71 75 76 75 79 82 78 72 71 73 76 79 80 82 82 81 82 81 78
164 255 274 141 100 93 108 107 102 101 110 107 90 63 56 79 91 102 107 122 111 95 87 83 78 80 78 76 73 70 71 74 76 78 79 80 78 76 73 71 74 76 80 83 84 82 81 80 80
217 206 189 117 101 83 100 116 124 127 110 91 103 91 82 77 97 108 119 125 114 102 95 89 80 79 77 75 73 72 71 73 76 79 81 79 79 77 74 75 75 76 79 82 83 82 81 79 79
220 198 140 120 104 98 100 117 140 125 108 106 104 101 97 91 104 117 123 122 114 102 97 96 87 81 77 76 76 74 73 73 75 77 78 77 75 73 74 76 79 79 79 82 82 83 83 81 80
192 186 145 127 116 112 118 130 130 116 110 111 109 108 100 113 122 123 123 123 114 105 102 103 100 86 78 76 78 76 75 76 77 76 75 75 72 70 72 75 82 82 80 78 78 79 80 79 77
157 133 126 127 128 127 124 138 134 125 115 112 121 114 118 131 130 131 127 125 118 114 106 105 110 105 98 84 78 77 76 77 78 76 75 75 74 73 72 72 78 83 82 79 76 76 76 74 72
56 143 134 136 137 124 133 141 113 116 109 115 142 126 135 144 142 138 132 129 122 117 110 103 99 94 97 97 89 83 81 79 79 77 75 80 85 82 77 75 72 78 79 77 76 76 74 74 71
221 164 138 140 145 130 145 150 129 117 126 130 119 92 123 139 148 146 139 133 125 121 116 110 105 98 93 90 99 99 98 91 100 94 87 90 85 81 80 70 70 74 79 77 74 75 76 78 81
200 141 111 117 141 135 149 152 147 155 144 141 135 121 134 149 159 159 151 144 139 132 126 119 114 108 101 97 100 93 91 90 86 89 88 83 80 77 79 83 75 72 78 84 78 82 85 71 70
139 109 108 127 142 143 152 150 165 174 153 154 158 152 154 162 166 165 159 153 143 136 130 128 123 115 108 105 96 90 90 91 88 88 91 88 86 89 81 83 86 78 76 74 83 81 68 65 60
128 100 129 139 150 164 160 160 181 202 148 123 146 153 160 169 172 170 165 158 153 148 141 135 130 123 117 110 105 103 98 93 92 94 91 89 84 79 78 77 73 70 66 66 67 68 70 66 64
149 118 116 140 153 163 161 181 211 221 202 157 151 160 168 174 172 171 167 163 161 156 156 148 145 135 126 114 111 110 99 92 97 95 97 89 85 79 80 80 75 69 66 68 65 67 68 66 62
114 128 137 151 160 177 184 201 213 220 185 174 171 174 179 181 180 175 178 177 175 169 165 153 157 146 141 133 130 112 110 110 102 98 99 97 90 85 79 78 76 71 64 62 66 68 68 66 63
147 153 155 169 183 181 200 219 218 211 182 183 185 184 185 186 183 186 188 188 186 175 169 161 163 157 151 137 125 120 122 119 111 106 102 97 89 88 86 76 80 80 77 72 67 67 63 64 66
191 204 193 155 181 190 221 233 173 180 189 192 193 189 190 194 194 189 191 194 188 178 172 164 167 167 158 149 145 137 128 124 116 110 100 96 93 85 83 77 79 84 83 78 69 67 66 62 57
209 219 214 177 189 203 228 253 174 187 202 207 202 197 198 200 201 197 194 200 192 185 177 170 171 171 165 159 155 147 136 131 123 114 111 108 103 94 95 82 81 91 90 86 80 70 63 63 57
223 236 233 232 213 231 239 251 226 206 216 221 213 207 204 208 204 200 196 197 192 189 186 179 172 177 169 169 166 152 148 145 130 124 121 111 112 105 100 108 110 101 97 91 92 89 76 68 67
252 249 253 261 257 252 256 261 245 216 220 225 220 217 213 212 207 199 193 190 187 189 193 188 184 181 175 175 179 172 164 160 153 141 127 139 136 131 121 119 109 113 121 120 111 102 100 86 82
235 245 253 260 245 260 269 267 255 222 224 229 227 218 217 212 204 196 194 188 190 190 196 195 192 185 183 185 183 178 168 170 161 157 155 160 158 158 153 150 134 141 136 138 125 125 104 86 67
236 248 257 268 264 242 268 259 230 211 212 219 228 228 215 212 207 198 195 193 194 195 196 197 192 187 186 183 178 172 162 168 173 175 175 167 167 172 173 167 170 171 176 163 163 171 172 159 124
243 246 256 257 258 254 246 274 238 211 212 218 223 222 212 205 205 198 194 194 198 198 197 198 191 188 186 183 184 185 188 189 192 188 177 177 181 181 184 191 207 199 199 192 190 192 207 210 200
249 254 248 252 258 262 241 261 252 195 220 222 220 216 209 204 200 197 195 195 197 194 192 193 188 188 185 187 186 194 197 198 191 189 186 188 189 197 200 209 211 214 210 209 200 201 217 215 235
210 207 216 231 249 253 247 250 261 214 229 224 207 207 202 200 197 196 186 184 186 183 184 186 185 186 186 190 192 199 198 197 193 197 194 193 196 205 203 213 217 216 214 212 205 205 210 230 237
214 230 233 230 228 245 236 250 254 95 274 253 222 191 186 189 185 181 177 181 181 180 181 182 183 188 190 193 198 202 205 204 204 200 201 202 201 204 208 210 218 217 212 209 204 208 213 218 226
221 232 242 255 257 262 229 245 219 134 207 247 215 194 176 179 179 177 175 176 179 180 183 186 187 190 192 197 201 203 201 204 211 208 203 206 211 208 208 210 215 217 213 207 205 216 218 224 225
224 229 250 261 265 265 246 241 223 178 183 156 161 177 183 176 178 180 177 178 179 178 184 188 190 192 194 198 200 201 200 201 207 212 209 209 211 208 211 205 211 210 214 216 212 219 215 222 226
250 225 222 236 251 254 252 248 239 198 202 163 151 181 199 192 186 178 178 181 179 178 180 188 193 196 197 199 200 199 201 200 202 205 206 209 208 206 207 208 211 207 208 210 214 217 217 218 216
200 214 227 238 246 258 262 253 28 224 212 218 276 251 212 200 194 182 178 181 176 172 174 183 190 196 199 201 201 201 200 198 197 203 206 209 209 206 207 211 214 211 212 210 205 213 213 221 220
236 231 229 241 243 248 264 262 108 230 229 246 288 296 218 203 195 182 174 173 171 173 175 187 190 189 196 200 201 202 201 199 200 202 203 207 211 214 213 212 215 215 217 216 211 210 216 223 226
Height
1504 1504 1504 1506 1504 1504 1510 1510 1507 1509 1510 1513 1513 1512 1512 1514 1516 1523 1524 1522 1522 1523 1522 1522 1521 1521 1520 1520 1520 1520 1520 1519 1519 1519 1519 1518 1518 1518 1518 1517 1517 1518 1518 1518 1518 1518 1518 1518 1518
1505 1504 1506 1506 1503 1510 1514 1509 1510 1511 1513 1515 1515 1515 1515 1518 1520 1522 1523 1523 1524 1524 1524 1523 1522 1522 1522 1522 1522 1521 1521 1521 1521 1520 1520 1520 1520 1520 1519 1519 1519 1519 1520 1520 1520 1520 1520 1519 1519
1505 1505 1507 1503 1505 1509 1513 1510 1511 1514 1515 1515 1516 1517 1518 1521 1523 1523 1524 1524 1525 1525 1525 1524 1524 1524 1523 1523 1523 1523 1523 1522 1522 1522 1522 1522 1522 1521 1521 1521 1521 1521 1521 1521 1521 1521 1521 1521 1520
1506 1508 1507 1505 1509 1509 1509 1510 1512 1514 1515 1516 1516 1518 1521 1524 1524 1525 1525 1525 1526 1526 1526 1525 1525 1525 1525 1525 1525 1524 1524 1524 1524 1524 1524 1523 1523 1523 1522 1522 1522 1522 1522 1522 1522 1522 1522 1522 1522
1507 1507 1505 1508 1510 1510 1510 1512 1513 1513 1515 1517 1517 1519 1522 1525 1525 1526 1526 1527 1527 1528 1528 1527 1526 1527 1527 1527 1526 1526 1526 1526 1526 1525 1525 1525 1525 1524 1523 1523 1523 1523 1523 1524 1524 1524 1524 1523 1523
1508 1505 1507 1511 1512 1511 1512 1513 1514 1514 1516 1518 1519 1520 1524 1526 1526 1527 1527 1528 1528 1529 1529 1528 1528 1528 1528 1528 1528 1528 1528 1527 1527 1527 1527 1527 1526 1526 1525 1524 1524 1525 1525 1525 1525 1525 1525 1525 1524
1508 1505 1507 1509 1512 1513 1513 1515 1514 1515 1516 1519 1520 1521 1524 1526 1527 1528 1529 1529 1530 1530 1530 1530 1531 1530 1530 1529 1529 1529 1529 1529 1529 1529 1529 1528 1528 1528 1527 1527 1526 1526 1526 1526 1526 1526 1526 1526 1526
1508 1506 1508 1509 1512 1513 1514 1516 1516 1516 1518 1520 1521 1521 1524 1527 1528 1529 1530 1530 1531 1531 1532 1532 1532 1533 1533 1532 1531 1531 1531 1531 1531 1531 1530 1530 1530 1530 1529 1529 1528 1528 1528 1528 1528 1528 1528 1527 1527
1508 1507 1510 1510 1512 1512 1514 1516 1518 1519 1519 1521 1522 1523 1525 1526 1528 1529 1530 1531 1532 1533 1533 1533 1534 1534 1534 1534 1533 1533 1533 1533 1533 1532 1532 1532 1533 1532 1531 1530 1530 1530 1529 1529 1529 1529 1529 1529 1529
1508 1508 1509 1509 1510 1511 1514 1515 1517 1518 1519 1520 1522 1524 1525 1526 1528 1530 1531 1532 1533 1534 1534 1535 1535 1535 1536 1535 1536 1536 1536 1535 1535 1535 1534 1534 1534 1534 1533 1532 1532 1531 1531 1531 1531 1530 1530 1531 1531
1507 1508 1509 1511 1512 1513 1514 1516 1517 1517 1517 1519 1521 1523 1525 1527 1528 1530 1531 1532 1533 1534 1535 1536 1536 1536 1537 1537 1537 1537 1537 1536 1537 1537 1536 1536 1536 1536 1535 1535 1534 1534 1533 1533 1533 1533 1532 1532 1532
1509 1509 1510 1512 1513 1514 1515 1516 1517 1517 1519 1520 1521 1523 1525 1526 1528 1530 1531 1532 1534 1535 1536 1536 1537 1538 1538 1538 1538 1538 1538 1538 1538 1538 1538 1538 1538 1537 1537 1537 1536 1536 1535 1534 1534 1534 1534 1534 1534
1508 1510 1512 1513 1514 1515 1515 1516 1517 1518 1519 1520 1521 1523 1524 1526 1528 1530 1531 1532 1534 1535 1536 1537 1537 1538 1539 1539 1539 1539 1539 1540 1540 1539 1540 1540 1539 1539 1539 1538 1538 1538 1537 1536 1535 1535 1536 1536 1536
1510 1511 1512 1513 1514 1515 1515 1516 1517 1517 1519 1520 1521 1522 1524 1525 1527 1529 1530 1532 1533 1534 1536 1537 1537 1538 1539 1539 1540 1540 1541 1540 1541 1541 1541 1541 1541 1541 1540 1540 1539 1539 1538 1538 1537 1537 1537 1537 1537
1511 1510 1511 1512 1513 1514 1515 1515 1515 1516 1518 1519 1520 1521 1523 1525 1526 1528 1529 1531 1532 1534 1535 1536 1537 1538 1539 1540 1540 1541 1541 1542 1542 1542 1542 1542 1542 1542 1542 1541 1541 1540 1540 1539 1539 1539 1539 1538 1538
1509 1509 1512 1511 1512 1513 1515 1515 1513 1515 1517 1517 1519 1520 1522 1523 1525 1526 1528 1530 1531 1533 1534 1536 1536 1538 1539 1540 1540 1541 1542 1542 1542 1542 1543 1543 1543 1543 1542 1542 1542 1542 1541 1541 1541 1541 1540 1540 1540
1508 1510 1511 1511 1510 1511 1511 1511 1512 1514 1515 1516 1517 1518 1520 1522 1523 1525 1526 1528 1530 1531 1533 1535 1536 1537 1539 1540 1540 1541 1542 1542 1543 1543 1543 1543 1543 1543 1543 1543 1543 1543 1542 1542 1542 1542 1542 1541 1541
1510 1508 1510 1510 1509 1509 1509 1509 1509 1512 1514 1514 1515 1516 1518 1519 1521 1523 1524 1526 1528 1530 1532 1534 1535 1536 1538 1539 1540 1541 1542 1542 1543 1543 1543 1543 1543 1544 1544 1543 1543 1543 1543 1543 1543 1543 1542 1542 1542
1506 1507 1509 1508 1507 1509 1507 1506 1506 1509 1511 1511 1512 1513 1515 1516 1518 1520 1522 1524 1525 1527 1530 1532 1534 1535 1536 1538 1539 1540 1541 1542 1542 1543 1543 1543 1544 1544 1544 1544 1544 1544 1544 1544 1544 1543 1543 1543 1543
1506 1508 1508 1507 1507 1508 1506 1504 1503 1506 1508 1509 1509 1511 1512 1514 1516 1518 1520 1521 1523 1525 1527 1530 1532 1533 1535 1536 1538 1539 1540 1541 1542 1542 1543 1543 1544 1544 1544 1544 1544 1544 1544 1544 1544 1544 1544 1544 1544
1506 1507 1507 1508 1507 1506 1507 1504 1501 1502 1505 1507 1508 1508 1509 1511 1513 1515 1517 1518 1520 1522 1525 1527 1529 1531 1533 1535 1536 1538 1539 1540 1541 1542 1542 1543 1543 1543 1543 1543 1544 1544 1544 1544 1544 1544 1544 1544 1544
1507 1504 1505 1507 1508 1506 1507 1508 1497 1497 1500 1503 1505 1506 1507 1509 1510 1512 1514 1516 1518 1520 1522 1525 1527 1529 1531 1533 1534 1536 1537 1539 1540 1541 1541 1542 1542 1542 1543 1543 1543 1543 1543 1543 1544 1544 1544 1544 1544
1503 1504 1504 1505 1505 1505 1502 1505 1495 1495 1498 1498 1500 1503 1505 1507 1508 1509 1511 1513 1515 1518 1520 1522 1525 1527 1529 1531 1532 1534 1536 1537 1538 1539 1540 1541 1541 1541 1542 1542 1542 1542 1542 1543 1543 1543 1543 1543 1543
1504 1505 1504 1504 1504 1509 1499 1502 1498 1492 1494 1495 1498 1501 1503 1504 1506 1507 1509 1511 1513 1515 1518 1520 1523 1525 1527 1529 1530 1532 1534 1535 1536 1538 1539 1539 1540 1540 1540 1540 1540 1541 1541 1541 1542 1542 1542 1542 1542
1502 1505 1510 1511 1511 1505 1497 1500 1496 1491 1493 1495 1497 1499 1501 1503 1504 1505 1506 1508 1510 1513 1515 1518 1520 1522 1524 1526 1528 1530 1531 1533 1534 1536 1537 1537 1538 1538 1538 1539 1539 1539 1540 1540 1540 1541 1541 1541 1541
1499 1500 1510 1517 1511 1502 1499 1498 1491 1491 1495 1496 1497 1499 1500 1502 1503 1504 1505 1506 1508 1510 1513 1515 1518 1520 1522 1524 1526 1528 1529 1530 1532 1533 1534 1535 1536 1536 1536 1537 1537 1538 1538 1539 1539 1539 1540 1540 1540
1498 1498 1497 1502 1502 1505 1496 1491 1489 1491 1493 1495 1496 1498 1499 1500 1501 1502 1503 1505 1507 1508 1510 1513 1515 1517 1519 1521 1523 1525 1526 1528 1529 1530 1532 1533 1533 1534 1534 1535 1535 1536 1536 1537 1537 1538 1538 1538 1538
1496 1495 1499 1502 1509 1508 1499 1493 1489 1489 1491 1493 1495 1496 1498 1499 1500 1501 1502 1503 1505 1507 1509 1511 1513 1515 1517 1519 1521 1522 1523 1525 1526 1527 1528 1530 1531 1531 1532 1532 1533 1534 1534 1534 1535 1536 1536 1536 1536
1498 1499 1497 1497 1498 1504 1503 1493 1485 1487 1489 1492 1494 1496 1497 1498 1499 1500 1501 1502 1504 1505 1507 1508 1510 1512 1514 1516 1518 1519 1520 1521 1523 1524 1525 1526 1527 1528 1529 1530 1531 1531 1532 1532 1532 1533 1533 1534 1534
1493 1493 1494 1500 1498 1496 1497 1494 1486 1488 1490 1492 1494 1495 1497 1498 1498 1499 1500 1501 1502 1503 1505 1507 1508 1510 1511 1513 1515 1516 1517 1518 1520 1521 1522 1523 1524 1525 1526 1527 1528 1529 1529 1530 1530 1530 1531 1531 1531